• In Hungary
  • List of Countries
  • For 7 days
  • Water Temperature
  • Satellite Maps
  • Weather Map
  • News
  • Weather Widgets
  • user-avatar
    Login

    Hourly Weather Vlasim

    Today, 21 September, Friday

    Time Temperature Precipitation Wind Pressure Humidity
    00:00 +18°C° 0 mm 2 mps 729 mmHg 74%
    01:00 +18°C° 0 mm 2 mps 729 mmHg 76%
    02:00 +17°C° 0 mm 2 mps 728 mmHg 77%
    03:00 +17°C° 0 mm 2 mps 728 mmHg 78%
    04:00 +17°C° 0 mm 2 mps 728 mmHg 79%
    05:00 +17°C° 0 mm 2 mps 727 mmHg 79%
    06:00 +17°C° 0 mm 3 mps 727 mmHg 78%
    07:00 +17°C° 0 mm 3 mps 727 mmHg 78%
    08:00 +19°C° 0 mm 3 mps 727 mmHg 71%
    09:00 +21°C° 0 mm 4 mps 727 mmHg 64%
    10:00 +23°C° 0 mm 4 mps 727 mmHg 57%
    11:00 +25°C° 0 mm 5 mps 726 mmHg 54%
    12:00 +27°C° 0 mm 5 mps 726 mmHg 50%
    13:00 +28°C° 0 mm 5 mps 726 mmHg 47%
    14:00 +28°C° 0 mm 4 mps 725 mmHg 48%
    15:00 +28°C° 0 mm 4 mps 725 mmHg 49%
    16:00 +28°C° 0 mm 4 mps 725 mmHg 50%
    17:00 +26°C° 0.1 mm 4 mps 725 mmHg 55%
    18:00 +23°C° 0.1 mm 4 mps 725 mmHg 60%
    19:00 +21°C° 0.1 mm 4 mps 725 mmHg 66%
    20:00 +20°C° 0.4 mm 4 mps 726 mmHg 71%
    21:00 +19°C° 0.4 mm 5 mps 727 mmHg 76%
    22:00 +16°C° 0.4 mm 6 mps 728 mmHg 81%
    23:00 +15°C° 0.7 mm 5 mps 728 mmHg 81%

    Tomorrow, 22 September, Saturday

    Time Temperature Precipitation Wind Pressure Humidity
    00:00 +14°C° 0.7 mm 4 mps 729 mmHg 80%
    01:00 +12°C° 0.7 mm 3 mps 730 mmHg 79%
    02:00 +12°C° 0.1 mm 3 mps 730 mmHg 79%
    03:00 +12°C° 0.1 mm 3 mps 731 mmHg 78%
    04:00 +11°C° 0.1 mm 3 mps 731 mmHg 77%
    05:00 +11°C° 0 mm 3 mps 732 mmHg 77%
    06:00 +11°C° 0 mm 3 mps 732 mmHg 77%
    07:00 +11°C° 0 mm 3 mps 732 mmHg 77%
    08:00 +12°C° 0 mm 4 mps 732 mmHg 70%
    09:00 +13°C° 0 mm 5 mps 732 mmHg 62%
    10:00 +14°C° 0 mm 6 mps 732 mmHg 54%
    11:00 +15°C° 0 mm 6 mps 732 mmHg 52%
    12:00 +15°C° 0 mm 6 mps 732 mmHg 49%
    13:00 +16°C° 0 mm 6 mps 732 mmHg 46%
    14:00 +16°C° 0 mm 6 mps 732 mmHg 47%
    15:00 +16°C° 0 mm 5 mps 732 mmHg 47%
    16:00 +16°C° 0 mm 5 mps 731 mmHg 48%
    17:00 +15°C° 0 mm 4 mps 732 mmHg 51%
    18:00 +14°C° 0 mm 4 mps 732 mmHg 54%
    19:00 +13°C° 0 mm 3 mps 732 mmHg 58%
    20:00 +12°C° 0 mm 3 mps 732 mmHg 60%
    21:00 +12°C° 0 mm 3 mps 733 mmHg 62%
    22:00 +11°C° 0 mm 3 mps 733 mmHg 64%
    23:00 +11°C° 0 mm 3 mps 733 mmHg 66%

    Day after tomorrow, 23 September, Sunday

    Time Temperature Precipitation Wind Pressure Humidity
    00:00 +10°C° 0 mm 2 mps 733 mmHg 68%
    01:00 +10°C° 0 mm 2 mps 733 mmHg 70%
    02:00 +10°C° 0 mm 2 mps 732 mmHg 70%
    03:00 +10°C° 0 mm 2 mps 732 mmHg 70%
    04:00 +9°C° 0 mm 2 mps 732 mmHg 70%
    05:00 +10°C° 0.2 mm 2 mps 732 mmHg 73%
    06:00 +10°C° 0.2 mm 2 mps 732 mmHg 75%
    07:00 +10°C° 0.2 mm 2 mps 732 mmHg 77%
    08:00 +11°C° 0.1 mm 3 mps 732 mmHg 77%
    09:00 +11°C° 0.1 mm 3 mps 732 mmHg 76%
    10:00 +12°C° 0.1 mm 3 mps 732 mmHg 75%
    11:00 +12°C° 0.1 mm 3 mps 731 mmHg 76%
    12:00 +13°C° 0.1 mm 3 mps 731 mmHg 77%
    13:00 +13°C° 0.1 mm 4 mps 730 mmHg 78%
    14:00 +13°C° 0.2 mm 4 mps 729 mmHg 79%
    15:00 +14°C° 0.2 mm 4 mps 728 mmHg 80%
    16:00 +14°C° 0.2 mm 4 mps 728 mmHg 82%
    17:00 +15°C° 0.1 mm 4 mps 727 mmHg 84%
    18:00 +15°C° 0.1 mm 4 mps 726 mmHg 86%
    19:00 +15°C° 0.1 mm 4 mps 725 mmHg 88%
    20:00 +15°C° 0.4 mm 5 mps 725 mmHg 88%
    21:00 +16°C° 0.4 mm 5 mps 724 mmHg 88%
    22:00 +16°C° 0.4 mm 6 mps 723 mmHg 88%
    23:00 +16°C° 1.1 mm 7 mps 722 mmHg 87%

    24 September, Monday

    Time Temperature Precipitation Wind Pressure Humidity
    00:00 +17°C° 1.1 mm 7 mps 720 mmHg 86%
    01:00 +17°C° 1.1 mm 8 mps 719 mmHg 85%
    02:00 +17°C° 2.4 mm 8 mps 719 mmHg 83%
    03:00 +16°C° 2.4 mm 9 mps 719 mmHg 82%
    04:00 +16°C° 2.4 mm 10 mps 719 mmHg 80%
    05:00 +12°C° 0.3 mm 10 mps 722 mmHg 80%
    06:00 +9°C° 0.3 mm 10 mps 724 mmHg 80%
    07:00 +7°C° 0.3 mm 10 mps 726 mmHg 80%
    08:00 +7°C° 0.1 mm 10 mps 728 mmHg 77%
    09:00 +7°C° 0.1 mm 9 mps 730 mmHg 75%
    10:00 +7°C° 0.1 mm 8 mps 732 mmHg 72%
    11:00 +8°C° 0 mm 9 mps 732 mmHg 65%
    12:00 +10°C° 0 mm 9 mps 733 mmHg 57%
    13:00 +11°C° 0 mm 9 mps 734 mmHg 49%
    14:00 +11°C° 0 mm 9 mps 734 mmHg 51%
    15:00 +11°C° 0 mm 8 mps 734 mmHg 53%
    16:00 +10°C° 0 mm 8 mps 735 mmHg 56%
    17:00 +9°C° 0.1 mm 7 mps 735 mmHg 59%
    18:00 +8°C° 0.1 mm 6 mps 736 mmHg 63%
    19:00 +7°C° 0.1 mm 5 mps 736 mmHg 67%
    20:00 +7°C° 0 mm 5 mps 737 mmHg 68%
    21:00 +6°C° 0 mm 4 mps 737 mmHg 70%
    22:00 +6°C° 0 mm 4 mps 738 mmHg 72%
    23:00 +5°C° 0 mm 4 mps 738 mmHg 74%

    25 September, Tuesday

    Time Temperature Precipitation Wind Pressure Humidity
    00:00 +5°C° 0 mm 4 mps 739 mmHg 75%
    01:00 +4°C° 0 mm 4 mps 739 mmHg 77%
    02:00 +4°C° 0 mm 4 mps 739 mmHg 79%
    03:00 +4°C° 0 mm 4 mps 740 mmHg 81%
    04:00 +3°C° 0 mm 4 mps 740 mmHg 83%
    05:00 +3°C° 0 mm 4 mps 741 mmHg 83%
    06:00 +3°C° 0 mm 4 mps 741 mmHg 84%
    07:00 +3°C° 0 mm 4 mps 741 mmHg 84%
    08:00 +5°C° 0 mm 4 mps 742 mmHg 77%
    09:00 +7°C° 0 mm 4 mps 743 mmHg 70%
    10:00 +8°C° 0 mm 4 mps 743 mmHg 64%
    11:00 +10°C° 0.1 mm 4 mps 743 mmHg 59%
    12:00 +11°C° 0.1 mm 4 mps 743 mmHg 55%
    13:00 +11°C° 0.1 mm 4 mps 743 mmHg 51%
    14:00 +11°C° 0 mm 4 mps 743 mmHg 50%
    15:00 +11°C° 0 mm 4 mps 743 mmHg 50%
    16:00 +11°C° 0 mm 4 mps 743 mmHg 49%
    17:00 +10°C° 0 mm 3 mps 743 mmHg 54%
    18:00 +8°C° 0 mm 2 mps 743 mmHg 60%
    19:00 +7°C° 0 mm 2 mps 743 mmHg 65%
    20:00 +6°C° 0 mm 2 mps 744 mmHg 67%
    21:00 +6°C° 0 mm 2 mps 744 mmHg 69%
    22:00 +6°C° 0 mm 1 mps 744 mmHg 71%
    23:00 +5°C° 0 mm 2 mps 744 mmHg 72%

    26 September, Wednesday

    Time Temperature Precipitation Wind Pressure Humidity
    00:00 +5°C° 0 mm 2 mps 744 mmHg 73%
    01:00 +5°C° 0 mm 2 mps 743 mmHg 75%
    02:00 +4°C° 0 mm 2 mps 743 mmHg 75%
    03:00 +4°C° 0 mm 2 mps 743 mmHg 75%
    04:00 +4°C° 0 mm 2 mps 743 mmHg 74%
    05:00 +5°C° 0 mm 2 mps 743 mmHg 74%
    06:00 +5°C° 0 mm 2 mps 743 mmHg 73%
    07:00 +4°C° 0 mm 3 mps 743 mmHg 72%
    08:00 +7°C° 0 mm 3 mps 743 mmHg 67%
    09:00 +8°C° 0 mm 4 mps 743 mmHg 63%
    10:00 +11°C° 0 mm 4 mps 743 mmHg 58%
    11:00 +12°C° 0 mm 4 mps 743 mmHg 56%
    12:00 +13°C° 0 mm 4 mps 743 mmHg 54%
    13:00 +14°C° 0 mm 4 mps 743 mmHg 52%
    14:00 +14°C° 0 mm 4 mps 742 mmHg 53%
    15:00 +14°C° 0 mm 3 mps 742 mmHg 53%
    16:00 +14°C° 0 mm 3 mps 742 mmHg 54%
    17:00 +13°C° 0 mm 2 mps 742 mmHg 59%
    18:00 +10°C° 0 mm 2 mps 742 mmHg 65%
    19:00 +10°C° 0 mm 1 mps 742 mmHg 71%
    20:00 +9°C° 0 mm 1 mps 742 mmHg 73%
    21:00 +9°C° 0 mm 1 mps 742 mmHg 75%
    22:00 +7°C° 0 mm 0 mps 742 mmHg 77%
    23:00 +8°C° 0 mm 1 mps 742 mmHg 78%
    Show more